User: anonymous   Login
Location: Unspecified
(0.0000°N, 0.0000°E)
Time: 21:09:28
(UTC+00:00)
Language:

OBJECT PD - Orbit

View from above orbital plane
View from above orbital plane
View from above satellite
View from above satellite

Ground track
Ground track

The orbit data is extracted from the following two-line orbital elements,

1 43589U 98067PD  19047.52167033  .00009535  00000-0  12868-3 0  9997
2 43589  51.6354 237.3825 0005609  61.0933 299.0622 15.58521322 29675
Epoch (UTC): 16 February 2019 12:31:12
Eccentricity: 0.0005609
inclination: 51.6354°
perigee height: 388 km
apogee height: 396 km
right ascension of ascending node: 237.3825°
argument of perigee: 61.0933°
revolutions per day: 15.58521322
mean anomaly at epoch: 299.0622°
orbit number at epoch: 2967

The dashed part of the orbit path shows where the satellite is in the earth's shadow,  

DLR